Time,TemperatureF,DewpointF,PressureIn,WindDirection,WindDirectionDegrees,WindSpeedMPH,WindSpeedGustMPH,Humidity,HourlyPrecipIn,Conditions,Clouds,dailyrainin,SoftwareType,DateUTC
2013-04-25 00:01:00,51.9,44.6,29.83,SSW,196,7.0,9.0,76,0.00,,,0.00,Wunderground v.1.15,2013-04-25 04:01:00,
2013-04-25 00:02:00,51.9,44.6,29.83,South,173,6.0,9.0,76,0.00,,,0.00,Wunderground v.1.15,2013-04-25 04:02:00,
2013-04-25 00:04:00,51.9,44.6,29.83,SW,222,10.0,10.0,76,0.00,,,0.00,Wunderground v.1.15,2013-04-25 04:04:00,
2013-04-25 00:05:00,51.9,44.9,29.83,SW,221,3.0,10.0,77,0.00,,,0.00,Wunderground v.1.15,2013-04-25 04:05:00,
2013-04-25 00:07:00,51.8,44.8,29.83,SSW,213,11.0,11.0,77,0.00,,,0.00,Wunderground v.1.15,2013-04-25 04:07:00,
2013-04-25 00:12:00,51.8,44.8,29.83,SSW,209,10.0,10.0,77,0.00,,,0.00,Wunderground v.1.15,2013-04-25 04:12:00,
2013-04-25 00:17:00,51.8,44.8,29.83,WSW,250,7.0,10.0,77,0.00,,,0.00,Wunderground v.1.15,2013-04-25 04:17:00,
2013-04-25 00:22:00,51.7,44.7,29.83,SSW,213,9.0,14.0,77,0.00,,,0.00,Wunderground v.1.15,2013-04-25 04:22:00,
2013-04-25 00:27:00,51.8,45.2,29.83,SSW,192,7.0,14.0,78,0.00,,,0.00,Wunderground v.1.15,2013-04-25 04:27:00,
2013-04-25 00:32:00,51.8,45.2,29.83,SW,224,4.0,8.0,78,0.00,,,0.00,Wunderground v.1.15,2013-04-25 04:32:00,
2013-04-25 00:37:00,51.8,45.2,29.83,SSW,204,3.0,13.0,78,0.00,,,0.00,Wunderground v.1.15,2013-04-25 04:37:00,
2013-04-25 00:42:00,51.9,45.3,29.83,South,182,2.0,8.0,78,0.00,,,0.00,Wunderground v.1.15,2013-04-25 04:42:00,
2013-04-25 00:47:00,52.0,45.4,29.83,South,189,9.0,10.0,78,0.00,,,0.00,Wunderground v.1.15,2013-04-25 04:47:00,
2013-04-25 00:53:00,52.2,45.5,29.83,SSW,196,12.0,12.0,78,0.00,,,0.00,Wunderground v.1.15,2013-04-25 04:53:00,
2013-04-25 00:58:00,52.2,45.5,29.83,SW,218,7.0,12.0,78,0.00,,,0.00,Wunderground v.1.15,2013-04-25 04:58:00,
2013-04-25 01:03:00,52.3,46.0,29.82,South,187,6.0,10.0,79,0.00,,,0.00,Wunderground v.1.15,2013-04-25 05:03:00,
2013-04-25 01:09:00,52.4,46.1,29.82,SSW,207,4.0,10.0,79,0.00,,,0.00,Wunderground v.1.15,2013-04-25 05:09:00,
2013-04-25 01:14:00,52.6,46.3,29.82,South,187,3.0,9.0,79,0.00,,,0.00,Wunderground v.1.15,2013-04-25 05:14:00,
2013-04-25 01:19:00,52.7,46.4,29.82,South,190,13.0,14.0,79,0.00,,,0.00,Wunderground v.1.15,2013-04-25 05:19:00,
2013-04-25 01:24:00,52.8,46.8,29.81,SW,234,4.0,10.0,80,0.00,,,0.00,Wunderground v.1.15,2013-04-25 05:24:00,
2013-04-25 01:29:00,52.9,46.9,29.81,WSW,246,7.0,10.0,80,0.00,,,0.00,Wunderground v.1.15,2013-04-25 05:29:00,
2013-04-25 01:34:00,53.1,47.1,29.81,WSW,238,5.0,14.0,80,0.00,,,0.00,Wunderground v.1.15,2013-04-25 05:34:00,
2013-04-25 01:39:00,53.3,47.3,29.80,South,184,8.0,14.0,80,0.00,,,0.00,Wunderground v.1.15,2013-04-25 05:39:00,
2013-04-25 01:45:00,53.5,47.5,29.81,South,190,5.0,16.0,80,0.00,,,0.00,Wunderground v.1.15,2013-04-25 05:45:00,
2013-04-25 01:50:00,53.6,47.6,29.80,SSW,209,9.0,9.0,80,0.00,,,0.00,Wunderground v.1.15,2013-04-25 05:50:00,
2013-04-25 01:55:00,53.7,48.0,29.80,SSW,211,8.0,14.0,81,0.00,,,0.00,Wunderground v.1.15,2013-04-25 05:55:00,
2013-04-25 02:00:00,53.9,48.2,29.80,SW,224,4.0,7.0,81,0.00,,,0.00,Wunderground v.1.15,2013-04-25 06:00:00,
2013-04-25 02:05:00,54.0,48.3,29.81,SSW,207,1.0,12.0,81,0.00,,,0.00,Wunderground v.1.15,2013-04-25 06:05:00,
2013-04-25 02:10:00,54.1,48.4,29.81,South,187,9.0,12.0,81,0.00,,,0.00,Wunderground v.1.15,2013-04-25 06:10:00,
2013-04-25 02:15:00,54.1,48.4,29.81,SW,217,4.0,12.0,81,0.00,,,0.00,Wunderground v.1.15,2013-04-25 06:15:00,
2013-04-25 02:20:00,54.2,48.5,29.81,WSW,248,9.0,9.0,81,0.00,,,0.00,Wunderground v.1.15,2013-04-25 06:20:00,
2013-04-25 02:25:00,54.3,48.6,29.81,WSW,241,9.0,12.0,81,0.00,,,0.00,Wunderground v.1.15,2013-04-25 06:25:00,
2013-04-25 02:30:00,54.4,48.7,29.81,SW,227,6.0,7.0,81,0.00,,,0.00,Wunderground v.1.15,2013-04-25 06:30:00,
2013-04-25 02:35:00,54.4,48.7,29.81,SW,229,7.0,15.0,81,0.00,,,0.00,Wunderground v.1.15,2013-04-25 06:35:00,
2013-04-25 02:40:00,54.4,48.7,29.81,SSW,209,7.0,11.0,81,0.00,,,0.00,Wunderground v.1.15,2013-04-25 06:40:00,
2013-04-25 02:45:00,54.5,48.8,29.80,SSW,196,10.0,13.0,81,0.00,,,0.00,Wunderground v.1.15,2013-04-25 06:45:00,
2013-04-25 02:50:00,54.6,48.9,29.80,SSW,192,7.0,7.0,81,0.00,,,0.00,Wunderground v.1.15,2013-04-25 06:50:00,
2013-04-25 02:55:00,54.7,49.0,29.80,South,188,6.0,13.0,81,0.00,,,0.00,Wunderground v.1.15,2013-04-25 06:55:00,
2013-04-25 03:00:00,54.7,49.0,29.80,SSW,209,8.0,11.0,81,0.00,,,0.00,Wunderground v.1.15,2013-04-25 07:00:00,
2013-04-25 03:05:00,54.8,49.1,29.80,SW,226,4.0,15.0,81,0.00,,,0.00,Wunderground v.1.15,2013-04-25 07:05:00,
2013-04-25 03:10:00,54.9,49.2,29.80,SSW,205,7.0,8.0,81,0.00,,,0.00,Wunderground v.1.15,2013-04-25 07:10:00,
2013-04-25 03:15:00,54.9,49.2,29.80,SSW,209,5.0,10.0,81,0.00,,,0.00,Wunderground v.1.15,2013-04-25 07:15:00,
2013-04-25 03:20:00,55.0,49.3,29.81,SSW,203,5.0,7.0,81,0.00,,,0.00,Wunderground v.1.15,2013-04-25 07:20:00,
2013-04-25 03:25:00,55.0,49.3,29.82,WSW,238,7.0,17.0,81,0.00,,,0.00,Wunderground v.1.15,2013-04-25 07:25:00,
2013-04-25 03:30:00,55.1,49.4,29.82,SW,233,2.0,6.0,81,0.00,,,0.00,Wunderground v.1.15,2013-04-25 07:30:00,
2013-04-25 03:35:00,55.1,49.4,29.83,SW,217,4.0,13.0,81,0.00,,,0.00,Wunderground v.1.15,2013-04-25 07:35:00,
2013-04-25 03:40:00,55.2,49.5,29.83,WSW,245,1.0,5.0,81,0.00,,,0.00,Wunderground v.1.15,2013-04-25 07:40:00,
2013-04-25 03:45:00,55.2,49.5,29.83,WSW,241,6.0,7.0,81,0.00,,,0.00,Wunderground v.1.15,2013-04-25 07:45:00,
2013-04-25 03:50:00,55.3,49.6,29.83,WSW,242,4.0,5.0,81,0.00,,,0.00,Wunderground v.1.15,2013-04-25 07:50:00,
2013-04-25 03:55:00,55.3,49.6,29.83,NNW,329,0.0,7.0,81,0.00,,,0.00,Wunderground v.1.15,2013-04-25 07:55:00,
2013-04-25 04:00:00,55.3,49.6,29.83,WSW,244,3.0,6.0,81,0.00,,,0.00,Wunderground v.1.15,2013-04-25 08:00:00,
2013-04-25 04:05:00,55.4,49.7,29.83,WSW,252,3.0,11.0,81,0.00,,,0.00,Wunderground v.1.15,2013-04-25 08:05:00,
2013-04-25 04:10:00,55.4,49.7,29.83,WSW,244,4.0,6.0,81,0.00,,,0.00,Wunderground v.1.15,2013-04-25 08:10:00,
2013-04-25 04:15:00,55.5,49.8,29.82,SW,215,4.0,8.0,81,0.00,,,0.00,Wunderground v.1.15,2013-04-25 08:15:00,
2013-04-25 04:20:00,55.5,49.8,29.83,West,270,5.0,5.0,81,0.00,,,0.00,Wunderground v.1.15,2013-04-25 08:20:00,
2013-04-25 04:25:00,55.6,49.9,29.83,WSW,239,2.0,5.0,81,0.00,,,0.00,Wunderground v.1.15,2013-04-25 08:25:00,
2013-04-25 04:30:00,55.6,49.9,29.83,WSW,245,5.0,5.0,81,0.00,,,0.00,Wunderground v.1.15,2013-04-25 08:30:00,
2013-04-25 04:35:00,55.7,50.0,29.84,WSW,249,5.0,9.0,81,0.00,,,0.00,Wunderground v.1.15,2013-04-25 08:35:00,
2013-04-25 04:40:00,55.8,50.1,29.84,WNW,285,6.0,7.0,81,0.00,,,0.00,Wunderground v.1.15,2013-04-25 08:40:00,
2013-04-25 04:45:00,55.9,50.2,29.84,West,259,3.0,9.0,81,0.00,,,0.00,Wunderground v.1.15,2013-04-25 08:45:00,
2013-04-25 04:50:00,55.9,50.2,29.85,West,261,7.0,7.0,81,0.00,,,0.00,Wunderground v.1.15,2013-04-25 08:50:00,
2013-04-25 04:55:00,55.9,50.5,29.84,West,259,3.0,7.0,82,0.00,,,0.01,Wunderground v.1.15,2013-04-25 08:55:00,
2013-04-25 05:00:00,55.8,50.4,29.85,West,280,6.0,6.0,82,0.00,,,0.01,Wunderground v.1.15,2013-04-25 09:00:00,
2013-04-25 05:06:00,55.7,50.6,29.86,WSW,248,2.0,9.0,83,0.00,,,0.01,Wunderground v.1.15,2013-04-25 09:06:00,
2013-04-25 05:11:00,55.5,50.4,29.86,West,263,2.0,6.0,83,0.00,,,0.01,Wunderground v.1.15,2013-04-25 09:11:00,
2013-04-25 05:16:00,55.4,50.3,29.86,WNW,285,4.0,7.0,83,0.00,,,0.01,Wunderground v.1.15,2013-04-25 09:16:00,
2013-04-25 05:21:00,55.3,50.2,29.87,West,279,2.0,8.0,83,0.00,,,0.01,Wunderground v.1.15,2013-04-25 09:21:00,
2013-04-25 05:26:00,55.2,50.4,29.86,West,277,4.0,8.0,84,0.00,,,0.01,Wunderground v.1.15,2013-04-25 09:26:00,
2013-04-25 05:31:00,55.1,50.4,29.87,West,263,5.0,9.0,84,0.00,,,0.01,Wunderground v.1.15,2013-04-25 09:31:00,
2013-04-25 05:36:00,55.1,50.4,29.88,NW,306,11.0,12.0,84,0.00,,,0.01,Wunderground v.1.15,2013-04-25 09:36:00,
2013-04-25 05:41:00,54.8,49.7,29.89,WNW,292,13.0,19.0,83,0.00,,,0.01,Wunderground v.1.15,2013-04-25 09:41:00,
2013-04-25 05:46:00,54.4,49.3,29.89,WNW,292,8.0,19.0,83,0.00,,,0.01,Wunderground v.1.15,2013-04-25 09:46:00,
2013-04-25 05:51:00,54.1,49.1,29.90,WSW,250,14.0,14.0,83,0.00,,,0.01,Wunderground v.1.15,2013-04-25 09:51:00,
2013-04-25 05:56:00,53.4,47.4,29.91,NW,313,15.0,18.0,80,0.00,,,0.01,Wunderground v.1.15,2013-04-25 09:56:00,
2013-04-25 06:01:00,52.4,45.4,29.92,NW,325,19.0,19.0,77,0.00,,,0.02,Wunderground v.1.15,2013-04-25 10:01:00,
2013-04-25 06:06:00,51.6,44.6,29.92,WNW,298,8.0,23.0,77,0.00,,,0.02,Wunderground v.1.15,2013-04-25 10:06:00,
2013-04-25 06:11:00,51.1,43.8,29.92,NW,322,16.0,16.0,76,0.00,,,0.02,Wunderground v.1.15,2013-04-25 10:11:00,
2013-04-25 06:16:00,50.6,43.0,29.92,NW,313,4.0,19.0,75,0.00,,,0.02,Wunderground v.1.15,2013-04-25 10:16:00,
2013-04-25 06:21:00,50.3,42.7,29.92,WNW,296,12.0,16.0,75,0.00,,,0.02,Wunderground v.1.15,2013-04-25 10:21:00,
2013-04-25 06:26:00,50.0,42.0,29.93,WNW,294,14.0,16.0,74,0.00,,,0.02,Wunderground v.1.15,2013-04-25 10:26:00,
2013-04-25 06:31:00,49.9,41.6,29.94,West,267,5.0,15.0,73,0.00,,,0.02,Wunderground v.1.15,2013-04-25 10:31:00,
2013-04-25 06:36:00,49.7,41.0,29.95,WNW,287,7.0,20.0,72,0.00,,,0.02,Wunderground v.1.15,2013-04-25 10:36:00,
2013-04-25 06:41:00,49.6,40.9,29.95,WNW,298,4.0,9.0,72,0.00,,,0.02,Wunderground v.1.15,2013-04-25 10:41:00,
2013-04-25 06:46:00,49.6,40.9,29.96,WNW,302,12.0,18.0,72,0.00,,,0.02,Wunderground v.1.15,2013-04-25 10:46:00,
2013-04-25 06:51:00,49.5,40.5,29.96,West,281,7.0,12.0,71,0.00,,,0.02,Wunderground v.1.15,2013-04-25 10:51:00,
2013-04-25 06:56:00,49.4,40.4,29.97,West,277,8.0,12.0,71,0.00,,,0.02,Wunderground v.1.15,2013-04-25 10:56:00,
2013-04-25 07:01:00,49.5,40.5,29.98,WNW,286,6.0,12.0,71,0.00,,,0.02,Wunderground v.1.15,2013-04-25 11:01:00,
2013-04-25 07:06:00,49.4,40.4,29.98,NW,323,13.0,13.0,71,0.00,,,0.02,Wunderground v.1.15,2013-04-25 11:06:00,
2013-04-25 07:11:00,49.4,40.0,29.98,NW,313,5.0,11.0,70,0.00,,,0.02,Wunderground v.1.15,2013-04-25 11:11:00,
2013-04-25 07:16:00,49.2,39.5,29.98,NNW,329,7.0,12.0,69,0.00,,,0.02,Wunderground v.1.15,2013-04-25 11:16:00,
2013-04-25 07:21:00,49.2,39.5,29.99,WNW,284,6.0,10.0,69,0.00,,,0.02,Wunderground v.1.15,2013-04-25 11:21:00,
2013-04-25 07:27:00,49.3,39.6,29.98,NW,317,10.0,13.0,69,0.00,,,0.02,Wunderground v.1.15,2013-04-25 11:27:00,
2013-04-25 07:32:00,49.4,40.0,29.97,NNW,336,6.0,10.0,70,0.00,,,0.02,Wunderground v.1.15,2013-04-25 11:32:00,
2013-04-25 07:37:00,49.5,39.7,29.99,NNW,330,7.0,14.0,69,0.00,,,0.02,Wunderground v.1.15,2013-04-25 11:37:00,
2013-04-25 07:42:00,49.6,39.8,29.99,NW,313,4.0,17.0,69,0.00,,,0.02,Wunderground v.1.15,2013-04-25 11:42:00,
2013-04-25 07:47:00,49.7,39.2,29.98,WNW,302,4.0,19.0,67,0.00,,,0.02,Wunderground v.1.15,2013-04-25 11:47:00,
2013-04-25 07:52:00,49.7,39.2,29.99,WNW,292,4.0,14.0,67,0.00,,,0.02,Wunderground v.1.15,2013-04-25 11:52:00,
2013-04-25 07:57:00,49.6,38.7,30.00,West,273,14.0,16.0,66,0.00,,,0.02,Wunderground v.1.15,2013-04-25 11:57:00,
2013-04-25 08:02:00,49.4,38.5,30.00,NW,319,9.0,11.0,66,0.00,,,0.02,Wunderground v.1.15,2013-04-25 12:02:00,
2013-04-25 08:07:00,49.2,37.5,30.01,WNW,300,9.0,17.0,64,0.00,,,0.02,Wunderground v.1.15,2013-04-25 12:07:00,
2013-04-25 08:12:00,49.2,37.5,30.01,NW,311,8.0,15.0,64,0.00,,,0.02,Wunderground v.1.15,2013-04-25 12:12:00,
2013-04-25 08:17:00,49.1,37.0,30.00,WNW,298,13.0,15.0,63,0.00,,,0.02,Wunderground v.1.15,2013-04-25 12:17:00,
2013-04-25 08:22:00,49.0,36.9,30.00,NW,318,12.0,15.0,63,0.00,,,0.02,Wunderground v.1.15,2013-04-25 12:22:00,
2013-04-25 08:27:00,48.8,36.8,30.02,NNW,347,8.0,17.0,63,0.00,,,0.02,Wunderground v.1.15,2013-04-25 12:27:00,
2013-04-25 08:32:00,48.8,36.4,30.00,WNW,302,4.0,9.0,62,0.00,,,0.02,Wunderground v.1.15,2013-04-25 12:32:00,
2013-04-25 08:37:00,48.9,36.9,30.02,WNW,295,5.0,10.0,63,0.00,,,0.02,Wunderground v.1.15,2013-04-25 12:37:00,
2013-04-25 08:42:00,49.0,36.9,30.02,WNW,300,1.0,11.0,63,0.00,,,0.02,Wunderground v.1.15,2013-04-25 12:42:00,
2013-04-25 08:47:00,49.0,36.5,30.01,NW,319,9.0,13.0,62,0.00,,,0.02,Wunderground v.1.15,2013-04-25 12:47:00,
2013-04-25 08:52:00,49.0,36.5,30.01,NW,309,7.0,12.0,62,0.00,,,0.02,Wunderground v.1.15,2013-04-25 12:52:00,
2013-04-25 08:57:00,49.1,36.6,30.02,West,267,11.0,13.0,62,0.00,,,0.02,Wunderground v.1.15,2013-04-25 12:57:00,
2013-04-25 09:02:00,49.2,36.3,30.02,WNW,296,6.0,14.0,61,0.00,,,0.02,Wunderground v.1.15,2013-04-25 13:02:00,
2013-04-25 09:07:00,49.3,36.4,30.03,West,281,4.0,14.0,61,0.00,,,0.02,Wunderground v.1.15,2013-04-25 13:07:00,
2013-04-25 09:12:00,49.4,36.9,30.03,WNW,286,9.0,13.0,62,0.00,,,0.02,Wunderground v.1.15,2013-04-25 13:12:00,
2013-04-25 09:17:00,49.7,36.4,30.03,WNW,292,9.0,14.0,60,0.00,,,0.02,Wunderground v.1.15,2013-04-25 13:17:00,
2013-04-25 09:22:00,50.0,36.7,30.03,WNW,296,11.0,12.0,60,0.00,,,0.02,Wunderground v.1.15,2013-04-25 13:22:00,
2013-04-25 09:27:00,50.1,36.7,30.03,West,280,6.0,12.0,60,0.00,,,0.02,Wunderground v.1.15,2013-04-25 13:27:00,
2013-04-25 09:32:00,50.6,37.6,30.04,WNW,303,8.0,14.0,61,0.00,,,0.02,Wunderground v.1.15,2013-04-25 13:32:00,
2013-04-25 09:38:00,51.3,38.7,30.03,West,279,9.0,14.0,62,0.00,,,0.02,Wunderground v.1.15,2013-04-25 13:38:00,
2013-04-25 09:43:00,52.0,38.1,30.03,North,360,1.0,12.0,59,0.00,,,0.02,Wunderground v.1.15,2013-04-25 13:43:00,
2013-04-25 09:48:00,52.2,37.0,30.04,NW,325,11.0,17.0,56,0.00,,,0.02,Wunderground v.1.15,2013-04-25 13:48:00,
2013-04-25 09:53:00,52.1,37.3,30.04,North,5,8.0,15.0,57,0.00,,,0.02,Wunderground v.1.15,2013-04-25 13:53:00,
2013-04-25 09:58:00,52.4,38.0,30.04,NW,317,9.0,15.0,58,0.00,,,0.02,Wunderground v.1.15,2013-04-25 13:58:00,
2013-04-25 10:03:00,52.9,38.5,30.03,NNW,330,7.0,13.0,58,0.00,,,0.02,Wunderground v.1.15,2013-04-25 14:03:00,
2013-04-25 10:08:00,53.4,37.6,30.04,NNW,337,7.0,15.0,55,0.00,,,0.02,Wunderground v.1.15,2013-04-25 14:08:00,
2013-04-25 10:13:00,53.9,38.6,30.04,West,260,7.0,10.0,56,0.00,,,0.02,Wunderground v.1.15,2013-04-25 14:13:00,
2013-04-25 10:18:00,54.6,38.7,30.04,WNW,293,12.0,13.0,55,0.00,,,0.02,Wunderground v.1.15,2013-04-25 14:18:00,
2013-04-25 10:23:00,55.1,39.2,30.05,NW,315,5.0,13.0,55,0.00,,,0.02,Wunderground v.1.15,2013-04-25 14:23:00,
2013-04-25 10:28:00,55.5,38.1,30.05,NNW,334,6.0,16.0,52,0.00,,,0.02,Wunderground v.1.15,2013-04-25 14:28:00,
2013-04-25 10:33:00,55.9,39.0,30.05,West,275,4.0,11.0,53,0.00,,,0.02,Wunderground v.1.15,2013-04-25 14:33:00,
2013-04-25 10:38:00,56.1,39.2,30.05,SW,220,2.0,13.0,53,0.00,,,0.02,Wunderground v.1.15,2013-04-25 14:38:00,
2013-04-25 10:43:00,56.4,38.0,30.04,WSW,245,6.0,9.0,50,0.00,,,0.02,Wunderground v.1.15,2013-04-25 14:43:00,
2013-04-25 10:48:00,56.8,39.4,30.04,NNW,333,5.0,14.0,52,0.00,,,0.02,Wunderground v.1.15,2013-04-25 14:48:00,
2013-04-25 10:53:00,57.3,37.8,30.04,NW,322,7.0,16.0,48,0.00,,,0.02,Wunderground v.1.15,2013-04-25 14:53:00,
2013-04-25 10:58:00,57.9,38.8,30.04,WNW,288,5.0,18.0,49,0.00,,,0.02,Wunderground v.1.15,2013-04-25 14:58:00,
2013-04-25 11:03:00,58.3,38.7,30.04,WNW,299,13.0,13.0,48,0.00,,,0.02,Wunderground v.1.15,2013-04-25 15:03:00,
2013-04-25 11:08:00,58.4,37.1,30.04,NW,317,3.0,13.0,45,0.00,,,0.02,Wunderground v.1.15,2013-04-25 15:08:00,
2013-04-25 11:13:00,58.6,37.3,30.04,NNW,348,14.0,14.0,45,0.00,,,0.02,Wunderground v.1.15,2013-04-25 15:13:00,
2013-04-25 11:18:00,58.7,37.4,30.05,NNW,333,9.0,21.0,45,0.00,,,0.02,Wunderground v.1.15,2013-04-25 15:18:00,
2013-04-25 11:23:00,58.7,36.2,30.05,NNW,331,9.0,17.0,43,0.00,,,0.02,Wunderground v.1.15,2013-04-25 15:23:00,
2013-04-25 11:28:00,58.7,36.8,30.05,WNW,294,6.0,17.0,44,0.00,,,0.02,Wunderground v.1.15,2013-04-25 15:28:00,
2013-04-25 11:33:00,59.0,38.2,30.05,NW,314,7.0,14.0,46,0.00,,,0.02,Wunderground v.1.15,2013-04-25 15:33:00,
2013-04-25 11:38:00,59.2,36.1,30.05,North,355,10.0,17.0,42,0.00,,,0.02,Wunderground v.1.15,2013-04-25 15:38:00,
2013-04-25 11:43:00,59.2,38.4,30.05,NW,323,8.0,13.0,46,0.00,,,0.02,Wunderground v.1.15,2013-04-25 15:43:00,
2013-04-25 11:48:00,59.5,38.7,30.05,West,270,7.0,13.0,46,0.00,,,0.02,Wunderground v.1.15,2013-04-25 15:48:00,
2013-04-25 11:53:00,60.1,38.1,30.06,West,269,7.0,15.0,44,0.00,,,0.02,Wunderground v.1.15,2013-04-25 15:53:00,
2013-04-25 11:58:00,60.6,38.0,30.05,North,360,4.0,15.0,43,0.00,,,0.02,Wunderground v.1.15,2013-04-25 15:58:00,
2013-04-25 12:03:00,60.5,37.3,30.05,WNW,288,8.0,17.0,42,0.00,,,0.02,Wunderground v.1.15,2013-04-25 16:03:00,
2013-04-25 12:08:00,60.7,35.6,30.06,NNW,348,6.0,17.0,39,0.00,,,0.02,Wunderground v.1.15,2013-04-25 16:08:00,
2013-04-25 12:13:00,60.6,34.8,30.06,NW,321,11.0,11.0,38,0.00,,,0.02,Wunderground v.1.15,2013-04-25 16:13:00,
2013-04-25 12:18:00,60.7,38.1,30.06,NW,314,8.0,17.0,43,0.00,,,0.02,Wunderground v.1.15,2013-04-25 16:18:00,
2013-04-25 12:23:00,61.1,37.8,30.06,SE,138,2.0,15.0,42,0.00,,,0.02,Wunderground v.1.15,2013-04-25 16:23:00,
2013-04-25 12:28:00,61.6,38.9,30.06,WNW,299,12.0,17.0,43,0.00,,,0.02,Wunderground v.1.15,2013-04-25 16:28:00,
2013-04-25 12:33:00,62.0,36.7,30.06,NW,309,9.0,16.0,39,0.00,,,0.02,Wunderground v.1.15,2013-04-25 16:33:00,
2013-04-25 12:38:00,61.9,36.0,30.06,WNW,288,9.0,19.0,38,0.00,,,0.02,Wunderground v.1.15,2013-04-25 16:38:00,
2013-04-25 12:43:00,61.4,35.5,30.06,NW,322,8.0,16.0,38,0.00,,,0.02,Wunderground v.1.15,2013-04-25 16:43:00,
2013-04-25 12:48:00,61.2,36.7,30.07,NNE,13,12.0,16.0,40,0.00,,,0.02,Wunderground v.1.15,2013-04-25 16:48:00,
2013-04-25 12:53:00,61.3,38.0,30.06,NW,320,9.0,13.0,42,0.00,,,0.02,Wunderground v.1.15,2013-04-25 16:53:00,
2013-04-25 12:58:00,61.5,35.6,30.06,NNW,327,8.0,16.0,38,0.00,,,0.02,Wunderground v.1.15,2013-04-25 16:58:00,
2013-04-25 13:03:00,61.6,38.3,30.07,West,275,8.0,12.0,42,0.00,,,0.02,Wunderground v.1.15,2013-04-25 17:03:00,
2013-04-25 13:08:00,62.1,36.8,30.07,NNW,336,5.0,12.0,39,0.00,,,0.02,Wunderground v.1.15,2013-04-25 17:08:00,
2013-04-25 13:13:00,62.5,37.8,30.07,West,279,5.0,11.0,40,0.00,,,0.02,Wunderground v.1.15,2013-04-25 17:13:00,
2013-04-25 13:18:00,62.7,36.0,30.07,NW,315,8.0,14.0,37,0.00,,,0.02,Wunderground v.1.15,2013-04-25 17:18:00,
2013-04-25 13:23:00,62.7,35.3,30.07,North,355,6.0,14.0,36,0.00,,,0.02,Wunderground v.1.15,2013-04-25 17:23:00,
2013-04-25 13:28:00,62.6,37.9,30.07,WSW,237,7.0,14.0,40,0.00,,,0.02,Wunderground v.1.15,2013-04-25 17:28:00,
2013-04-25 13:33:00,63.0,36.3,30.07,NW,318,4.0,14.0,37,0.00,,,0.02,Wunderground v.1.15,2013-04-25 17:33:00,
2013-04-25 13:38:00,62.8,35.4,30.07,NW,326,11.0,14.0,36,0.00,,,0.02,Wunderground v.1.15,2013-04-25 17:38:00,
2013-04-25 13:43:00,62.5,37.2,30.07,NNW,341,4.0,13.0,39,0.00,,,0.02,Wunderground v.1.15,2013-04-25 17:43:00,
2013-04-25 13:48:00,62.9,36.9,30.07,WNW,288,2.0,13.0,38,0.00,,,0.02,Wunderground v.1.15,2013-04-25 17:48:00,
2013-04-25 13:53:00,63.1,36.4,30.07,West,265,3.0,11.0,37,0.00,,,0.02,Wunderground v.1.15,2013-04-25 17:53:00,
2013-04-25 13:58:00,63.2,35.8,30.07,NW,311,8.0,17.0,36,0.00,,,0.02,Wunderground v.1.15,2013-04-25 17:58:00,
2013-04-25 14:03:00,63.0,37.0,30.07,NNW,340,5.0,9.0,38,0.00,,,0.02,Wunderground v.1.15,2013-04-25 18:03:00,
2013-04-25 14:08:00,62.9,34.8,30.06,NNW,335,4.0,11.0,35,0.00,,,0.02,Wunderground v.1.15,2013-04-25 18:08:00,
2013-04-25 14:13:00,62.9,34.1,30.06,WNW,303,7.0,8.0,34,0.00,,,0.02,Wunderground v.1.15,2013-04-25 18:13:00,
2013-04-25 14:18:00,63.1,35.0,30.06,WNW,298,7.0,13.0,35,0.00,,,0.02,Wunderground v.1.15,2013-04-25 18:18:00,
2013-04-25 14:23:00,63.2,33.6,30.07,NW,310,3.0,12.0,33,0.00,,,0.02,Wunderground v.1.15,2013-04-25 18:23:00,
2013-04-25 14:28:00,63.6,36.8,30.06,WSW,245,9.0,14.0,37,0.00,,,0.02,Wunderground v.1.15,2013-04-25 18:28:00,
2013-04-25 14:33:00,64.2,36.7,30.06,SW,236,5.0,11.0,36,0.00,,,0.02,Wunderground v.1.15,2013-04-25 18:33:00,
2013-04-25 14:38:00,64.4,36.8,30.06,SW,232,2.0,11.0,36,0.00,,,0.02,Wunderground v.1.15,2013-04-25 18:38:00,
2013-04-25 14:44:00,64.6,36.3,30.06,NNW,333,9.0,9.0,35,0.00,,,0.02,Wunderground v.1.15,2013-04-25 18:44:00,
2013-04-25 14:49:00,64.4,35.4,30.06,NNE,25,7.0,10.0,34,0.00,,,0.02,Wunderground v.1.15,2013-04-25 18:49:00,
2013-04-25 14:54:00,64.4,33.9,30.06,North,355,6.0,11.0,32,0.00,,,0.02,Wunderground v.1.15,2013-04-25 18:54:00,
2013-04-25 14:59:00,64.3,36.0,30.06,NNW,341,10.0,11.0,35,0.00,,,0.02,Wunderground v.1.15,2013-04-25 18:59:00,
2013-04-25 15:04:00,64.3,36.8,30.06,WNW,282,1.0,7.0,36,0.00,,,0.02,Wunderground v.1.15,2013-04-25 19:04:00,
2013-04-25 15:09:00,64.2,37.4,30.06,West,276,5.0,12.0,37,0.00,,,0.02,Wunderground v.1.15,2013-04-25 19:09:00,
2013-04-25 15:14:00,64.3,36.0,30.06,WNW,300,6.0,11.0,35,0.00,,,0.02,Wunderground v.1.15,2013-04-25 19:14:00,
2013-04-25 15:19:00,64.3,34.6,30.06,West,271,10.0,11.0,33,0.00,,,0.02,Wunderground v.1.15,2013-04-25 19:19:00,
2013-04-25 15:24:00,64.1,34.4,30.06,NW,307,7.0,10.0,33,0.00,,,0.02,Wunderground v.1.15,2013-04-25 19:24:00,
2013-04-25 15:29:00,63.8,35.6,30.06,West,272,3.0,10.0,35,0.00,,,0.02,Wunderground v.1.15,2013-04-25 19:29:00,
2013-04-25 15:34:00,63.7,34.0,30.06,NW,319,6.0,10.0,33,0.00,,,0.02,Wunderground v.1.15,2013-04-25 19:34:00,
2013-04-25 15:39:00,63.6,34.7,30.06,WNW,291,5.0,10.0,34,0.00,,,0.02,Wunderground v.1.15,2013-04-25 19:39:00,
2013-04-25 15:44:00,63.6,33.9,30.06,West,277,4.0,11.0,33,0.00,,,0.02,Wunderground v.1.15,2013-04-25 19:44:00,
2013-04-25 15:49:00,63.5,33.9,30.06,NNE,19,1.0,11.0,33,0.00,,,0.02,Wunderground v.1.15,2013-04-25 19:49:00,
2013-04-25 15:54:00,63.3,33.7,30.06,NNE,21,0.0,6.0,33,0.00,,,0.02,Wunderground v.1.15,2013-04-25 19:54:00,
2013-04-25 15:59:00,63.3,32.1,30.06,NNW,329,0.0,7.0,31,0.00,,,0.02,Wunderground v.1.15,2013-04-25 19:59:00,
2013-04-25 16:04:00,63.2,33.6,30.06,NW,322,2.0,11.0,33,0.00,,,0.02,Wunderground v.1.15,2013-04-25 20:04:00,
2013-04-25 16:09:00,63.3,32.1,30.06,NNE,16,0.0,11.0,31,0.00,,,0.02,Wunderground v.1.15,2013-04-25 20:09:00,
2013-04-25 16:14:00,63.3,32.9,30.06,North,5,4.0,9.0,32,0.00,,,0.02,Wunderground v.1.15,2013-04-25 20:14:00,
2013-04-25 16:19:00,63.2,34.3,30.06,NNW,330,8.0,9.0,34,0.00,,,0.02,Wunderground v.1.15,2013-04-25 20:19:00,
2013-04-25 16:24:00,63.3,35.2,30.06,WNW,298,3.0,11.0,35,0.00,,,0.02,Wunderground v.1.15,2013-04-25 20:24:00,
2013-04-25 16:29:00,63.4,33.0,30.06,NNW,338,7.0,12.0,32,0.00,,,0.02,Wunderground v.1.15,2013-04-25 20:29:00,
2013-04-25 16:34:00,63.4,33.8,30.06,North,350,4.0,10.0,33,0.00,,,0.02,Wunderground v.1.15,2013-04-25 20:34:00,
2013-04-25 16:39:00,63.4,33.8,30.07,SW,214,1.0,10.0,33,0.00,,,0.02,Wunderground v.1.15,2013-04-25 20:39:00,
2013-04-25 16:44:00,63.6,31.6,30.07,SW,234,0.0,7.0,30,0.00,,,0.02,Wunderground v.1.15,2013-04-25 20:44:00,
2013-04-25 16:49:00,63.7,33.3,30.07,West,278,7.0,11.0,32,0.00,,,0.02,Wunderground v.1.15,2013-04-25 20:49:00,
2013-04-25 16:54:00,63.8,33.4,30.07,WNW,286,4.0,13.0,32,0.00,,,0.02,Wunderground v.1.15,2013-04-25 20:54:00,
2013-04-25 16:59:00,63.6,31.6,30.07,WNW,303,6.0,13.0,30,0.00,,,0.02,Wunderground v.1.15,2013-04-25 20:59:00,
2013-04-25 17:04:00,63.5,31.5,30.08,West,260,10.0,12.0,30,0.00,,,0.02,Wunderground v.1.15,2013-04-25 21:04:00,
2013-04-25 17:09:00,63.4,30.6,30.08,North,360,8.0,13.0,29,0.00,,,0.02,Wunderground v.1.15,2013-04-25 21:09:00,
2013-04-25 17:14:00,63.3,31.3,30.08,NW,319,5.0,10.0,30,0.00,,,0.02,Wunderground v.1.15,2013-04-25 21:14:00,
2013-04-25 17:19:00,63.2,31.2,30.08,NNE,13,3.0,10.0,30,0.00,,,0.02,Wunderground v.1.15,2013-04-25 21:19:00,
2013-04-25 17:24:00,63.2,31.2,30.08,WNW,301,5.0,10.0,30,0.00,,,0.02,Wunderground v.1.15,2013-04-25 21:24:00,
2013-04-25 17:29:00,63.2,29.5,30.08,West,272,9.0,13.0,28,0.00,,,0.02,Wunderground v.1.15,2013-04-25 21:29:00,
2013-04-25 17:34:00,63.2,28.6,30.08,WSW,255,1.0,11.0,27,0.00,,,0.02,Wunderground v.1.15,2013-04-25 21:34:00,
2013-04-25 17:39:00,63.1,31.1,30.09,WNW,284,3.0,11.0,30,0.00,,,0.02,Wunderground v.1.15,2013-04-25 21:39:00,
2013-04-25 17:44:00,62.9,30.1,30.09,WNW,290,5.0,10.0,29,0.00,,,0.02,Wunderground v.1.15,2013-04-25 21:44:00,
2013-04-25 17:49:00,62.8,30.0,30.09,NNW,337,3.0,10.0,29,0.00,,,0.02,Wunderground v.1.15,2013-04-25 21:49:00,
2013-04-25 17:54:00,62.6,31.5,30.09,WNW,299,8.0,14.0,31,0.00,,,0.02,Wunderground v.1.15,2013-04-25 21:54:00,
2013-04-25 17:59:00,62.5,30.6,30.09,West,277,3.0,14.0,30,0.00,,,0.02,Wunderground v.1.15,2013-04-25 21:59:00,
2013-04-25 18:04:00,62.4,30.5,30.09,West,279,1.0,8.0,30,0.00,,,0.02,Wunderground v.1.15,2013-04-25 22:04:00,
2013-04-25 18:09:00,62.2,29.5,30.09,NW,319,1.0,9.0,29,0.00,,,0.02,Wunderground v.1.15,2013-04-25 22:09:00,
2013-04-25 18:14:00,62.0,30.2,30.09,WNW,296,3.0,8.0,30,0.00,,,0.02,Wunderground v.1.15,2013-04-25 22:14:00,
2013-04-25 18:19:00,61.9,30.9,30.09,WNW,302,5.0,11.0,31,0.00,,,0.02,Wunderground v.1.15,2013-04-25 22:19:00,
2013-04-25 18:24:00,61.7,29.9,30.10,NW,317,7.0,10.0,30,0.00,,,0.02,Wunderground v.1.15,2013-04-25 22:24:00,
2013-04-25 18:29:00,61.6,29.0,30.10,NW,319,5.0,10.0,29,0.00,,,0.02,Wunderground v.1.15,2013-04-25 22:29:00,
2013-04-25 18:34:00,61.4,29.7,30.10,WSW,253,5.0,8.0,30,0.00,,,0.02,Wunderground v.1.15,2013-04-25 22:34:00,
2013-04-25 18:39:00,61.2,28.7,30.10,WNW,303,6.0,9.0,29,0.00,,,0.02,Wunderground v.1.15,2013-04-25 22:39:00,
2013-04-25 18:44:00,61.0,28.5,30.10,NW,313,6.0,11.0,29,0.00,,,0.02,Wunderground v.1.15,2013-04-25 22:44:00,
2013-04-25 18:49:00,60.9,28.4,30.11,NW,315,0.0,11.0,29,0.00,,,0.02,Wunderground v.1.15,2013-04-25 22:49:00,
2013-04-25 18:54:00,60.8,30.7,30.11,WSW,244,2.0,7.0,32,0.00,,,0.02,Wunderground v.1.15,2013-04-25 22:54:00,
2013-04-25 18:59:00,60.5,29.7,30.11,West,281,0.0,7.0,31,0.00,,,0.02,Wunderground v.1.15,2013-04-25 22:59:00,
2013-04-25 19:04:00,60.4,30.4,30.11,West,273,5.0,8.0,32,0.00,,,0.02,Wunderground v.1.15,2013-04-25 23:04:00,
2013-04-25 19:09:00,60.2,29.4,30.11,NW,306,4.0,8.0,31,0.00,,,0.02,Wunderground v.1.15,2013-04-25 23:09:00,
2013-04-25 19:14:00,59.9,28.4,30.11,NW,304,3.0,7.0,30,0.00,,,0.02,Wunderground v.1.15,2013-04-25 23:14:00,
2013-04-25 19:19:00,59.8,29.9,30.12,NW,309,4.0,7.0,32,0.00,,,0.02,Wunderground v.1.15,2013-04-25 23:19:00,
2013-04-25 19:24:00,59.5,29.6,30.12,NW,306,4.0,6.0,32,0.00,,,0.02,Wunderground v.1.15,2013-04-25 23:24:00,
2013-04-25 19:29:00,59.3,28.6,30.12,NNW,327,2.0,6.0,31,0.00,,,0.02,Wunderground v.1.15,2013-04-25 23:29:00,
2013-04-25 19:34:00,59.0,28.4,30.13,NW,311,2.0,5.0,31,0.00,,,0.02,Wunderground v.1.15,2013-04-25 23:34:00,
2013-04-25 19:39:00,59.0,29.2,30.13,WNW,294,4.0,5.0,32,0.00,,,0.02,Wunderground v.1.15,2013-04-25 23:39:00,
2013-04-25 19:44:00,58.8,29.0,30.13,NW,310,3.0,5.0,32,0.00,,,0.02,Wunderground v.1.15,2013-04-25 23:44:00,
2013-04-25 19:49:00,58.5,27.9,30.13,NW,320,3.0,5.0,31,0.00,,,0.02,Wunderground v.1.15,2013-04-25 23:49:00,
2013-04-25 19:54:00,58.2,28.5,30.14,NW,314,2.0,6.0,32,0.00,,,0.02,Wunderground v.1.15,2013-04-25 23:54:00,
2013-04-25 19:59:00,58.0,27.5,30.14,NW,316,1.0,6.0,31,0.00,,,0.02,Wunderground v.1.15,2013-04-25 23:59:00,
2013-04-25 20:04:00,57.8,27.3,30.14,NW,316,0.0,4.0,31,0.00,,,0.02,Wunderground v.1.15,2013-04-26 00:04:00,
2013-04-25 20:09:00,57.6,27.9,30.15,North,11,1.0,4.0,32,0.00,,,0.02,Wunderground v.1.15,2013-04-26 00:09:00,
2013-04-25 20:14:00,57.4,33.3,30.15,ENE,66,2.0,4.0,40,0.00,,,0.02,Wunderground v.1.15,2013-04-26 00:14:00,
2013-04-25 20:19:00,57.2,34.3,30.15,East,83,5.0,6.0,42,0.00,,,0.02,Wunderground v.1.15,2013-04-26 00:19:00,
2013-04-25 20:24:00,57.0,34.7,30.16,East,83,3.0,6.0,43,0.00,,,0.02,Wunderground v.1.15,2013-04-26 00:24:00,
2013-04-25 20:29:00,56.7,35.0,30.16,ENE,77,3.0,7.0,44,0.00,,,0.02,Wunderground v.1.15,2013-04-26 00:29:00,
2013-04-25 20:34:00,56.5,35.4,30.16,East,82,2.0,7.0,45,0.00,,,0.02,Wunderground v.1.15,2013-04-26 00:34:00,
2013-04-25 20:39:00,56.2,35.1,30.17,ENE,61,5.0,7.0,45,0.00,,,0.02,Wunderground v.1.15,2013-04-26 00:39:00,
2013-04-25 20:44:00,55.9,34.3,30.17,ENE,72,3.0,5.0,44,0.00,,,0.02,Wunderground v.1.15,2013-04-26 00:44:00,
2013-04-25 20:49:00,55.6,34.0,30.17,ENE,74,0.0,5.0,44,0.00,,,0.02,Wunderground v.1.15,2013-04-26 00:49:00,
2013-04-25 20:54:00,55.5,34.5,30.18,ENE,74,2.0,3.0,45,0.00,,,0.02,Wunderground v.1.15,2013-04-26 00:54:00,
2013-04-25 20:59:00,55.3,33.7,30.18,ENE,74,1.0,3.0,44,0.00,,,0.02,Wunderground v.1.15,2013-04-26 00:59:00,
2013-04-25 21:04:00,55.1,34.1,30.18,ENE,74,0.0,1.0,45,0.00,,,0.02,Wunderground v.1.15,2013-04-26 01:04:00,
2013-04-25 21:09:00,55.0,34.0,30.18,ENE,74,0.0,2.0,45,0.00,,,0.02,Wunderground v.1.15,2013-04-26 01:09:00,
2013-04-25 21:14:00,54.8,34.4,30.18,ENE,74,1.0,3.0,46,0.00,,,0.02,Wunderground v.1.15,2013-04-26 01:14:00,
2013-04-25 21:19:00,54.5,34.1,30.19,ENE,74,0.0,3.0,46,0.00,,,0.02,Wunderground v.1.15,2013-04-26 01:19:00,
2013-04-25 21:24:00,54.2,34.4,30.19,ENE,74,0.0,1.0,47,0.00,,,0.02,Wunderground v.1.15,2013-04-26 01:24:00,
2013-04-25 21:29:00,53.9,34.1,30.19,ENE,74,0.0,1.0,47,0.00,,,0.02,Wunderground v.1.15,2013-04-26 01:29:00,
2013-04-25 21:34:00,53.5,34.3,30.19,ENE,74,0.0,0.0,48,0.00,,,0.02,Wunderground v.1.15,2013-04-26 01:34:00,
2013-04-25 21:39:00,53.2,34.0,30.19,ENE,74,0.0,0.0,48,0.00,,,0.02,Wunderground v.1.15,2013-04-26 01:39:00,
2013-04-25 21:44:00,52.8,34.2,30.19,ENE,74,0.0,0.0,49,0.00,,,0.02,Wunderground v.1.15,2013-04-26 01:44:00,
2013-04-25 21:50:00,52.4,34.3,30.19,ENE,74,0.0,0.0,50,0.00,,,0.02,Wunderground v.1.15,2013-04-26 01:50:00,
2013-04-25 21:55:00,52.1,34.0,30.19,ENE,74,2.0,2.0,50,0.00,,,0.02,Wunderground v.1.15,2013-04-26 01:55:00,
2013-04-25 22:00:00,51.8,33.7,30.20,ENE,74,0.0,1.0,50,0.00,,,0.02,Wunderground v.1.15,2013-04-26 02:00:00,
2013-04-25 22:05:00,51.6,34.0,30.20,ENE,74,0.0,1.0,51,0.00,,,0.02,Wunderground v.1.15,2013-04-26 02:05:00,
2013-04-25 22:10:00,51.4,33.9,30.20,ENE,74,0.0,0.0,51,0.00,,,0.02,Wunderground v.1.15,2013-04-26 02:10:00,
2013-04-25 22:15:00,51.2,34.2,30.20,ENE,74,0.0,0.0,52,0.00,,,0.02,Wunderground v.1.15,2013-04-26 02:15:00,
2013-04-25 22:20:00,50.9,34.8,30.20,ENE,74,1.0,1.0,54,0.00,,,0.02,Wunderground v.1.15,2013-04-26 02:20:00,
2013-04-25 22:25:00,50.6,34.6,30.20,ENE,74,1.0,2.0,54,0.00,,,0.02,Wunderground v.1.15,2013-04-26 02:25:00,
2013-04-25 22:30:00,50.3,34.7,30.21,ENE,74,0.0,1.0,55,0.00,,,0.02,Wunderground v.1.15,2013-04-26 02:30:00,
2013-04-25 22:35:00,50.0,34.5,30.21,ENE,74,0.0,3.0,55,0.00,,,0.02,Wunderground v.1.15,2013-04-26 02:35:00,
2013-04-25 22:40:00,49.8,34.3,30.21,ENE,74,0.0,1.0,55,0.00,,,0.02,Wunderground v.1.15,2013-04-26 02:40:00,
2013-04-25 22:45:00,49.6,34.1,30.21,ENE,74,0.0,1.0,55,0.00,,,0.02,Wunderground v.1.15,2013-04-26 02:45:00,
2013-04-25 22:50:00,49.4,33.9,30.21,ENE,74,0.0,0.0,55,0.00,,,0.02,Wunderground v.1.15,2013-04-26 02:50:00,
2013-04-25 22:55:00,49.2,34.6,30.21,ENE,74,1.0,3.0,57,0.00,,,0.02,Wunderground v.1.15,2013-04-26 02:55:00,
2013-04-25 23:00:00,48.9,34.8,30.22,ENE,74,0.0,1.0,58,0.00,,,0.02,Wunderground v.1.15,2013-04-26 03:00:00,
2013-04-25 23:05:00,48.7,34.1,30.22,ENE,74,0.0,1.0,57,0.00,,,0.02,Wunderground v.1.15,2013-04-26 03:05:00,
2013-04-25 23:10:00,48.6,34.0,30.22,ENE,74,0.0,0.0,57,0.00,,,0.02,Wunderground v.1.15,2013-04-26 03:10:00,
2013-04-25 23:15:00,48.5,34.4,30.22,ENE,74,2.0,2.0,58,0.00,,,0.02,Wunderground v.1.15,2013-04-26 03:15:00,
2013-04-25 23:20:00,48.4,34.3,30.22,ENE,74,2.0,3.0,58,0.00,,,0.02,Wunderground v.1.15,2013-04-26 03:20:00,
2013-04-25 23:25:00,48.2,34.1,30.22,ENE,74,1.0,3.0,58,0.00,,,0.02,Wunderground v.1.15,2013-04-26 03:25:00,
2013-04-25 23:30:00,48.0,33.9,30.22,ENE,74,1.0,2.0,58,0.00,,,0.02,Wunderground v.1.15,2013-04-26 03:30:00,
2013-04-25 23:35:00,47.9,34.3,30.22,ENE,61,3.0,3.0,59,0.00,,,0.02,Wunderground v.1.15,2013-04-26 03:35:00,
2013-04-25 23:40:00,47.7,34.1,30.23,ENE,61,0.0,2.0,59,0.00,,,0.02,Wunderground v.1.15,2013-04-26 03:40:00,
2013-04-25 23:45:00,47.4,34.6,30.23,ENE,61,2.0,3.0,61,0.00,,,0.02,Wunderground v.1.15,2013-04-26 03:45:00,
2013-04-25 23:50:00,47.2,34.8,30.23,ENE,61,1.0,2.0,62,0.00,,,0.02,Wunderground v.1.15,2013-04-26 03:50:00,
2013-04-25 23:55:00,47.0,34.6,30.23,ENE,61,0.0,2.0,62,0.00,,,0.02,Wunderground v.1.15,2013-04-26 03:55:00,